| time (UTC) | temp C | wind direction | speed KPH | gust KPH | rain 1hr cm | rain 24hr cm | rain mn cm | humidity % | barometer mb |
| 20260505165535 | 13 | 332 | 0.0 | 3.2 | 0.00 | 0.00 | 0.00 | 83 | 1016.0 |
| 20260505165035 | 13 | 5 | 0.0 | 4.8 | 0.00 | 0.00 | 0.00 | 83 | 1016.0 |
| 20260505164538 | 13 | 5 | 1.6 | 4.8 | 0.00 | 0.00 | 0.00 | 84 | 1015.9 |
| 20260505164037 | 13 | 9 | 1.6 | 4.8 | 0.00 | 0.00 | 0.00 | 84 | 1016.0 |
| 20260505163536 | 13 | 318 | 1.6 | 4.8 | 0.00 | 0.00 | 0.00 | 85 | 1015.9 |
| 20260505163038 | 13 | 352 | 1.6 | 3.2 | 0.00 | 0.00 | 0.00 | 86 | 1016.0 |
| 20260505162535 | 13 | 286 | 0.0 | 3.2 | 0.00 | 0.00 | 0.00 | 86 | 1015.9 |
| 20260505162035 | 13 | 308 | 1.6 | 4.8 | 0.00 | 0.00 | 0.00 | 86 | 1015.9 |
| 20260505161551 | 12 | 292 | 1.6 | 4.8 | 0.00 | 0.00 | 0.00 | 86 | 1015.9 |
| 20260505161035 | 12 | 248 | 3.2 | 4.8 | 0.00 | 0.00 | 0.00 | 86 | 1015.9 |
| 20260505160538 | 12 | 269 | 1.6 | 3.2 | 0.00 | 0.00 | 0.00 | 87 | 1015.8 |
| 20260505153041 | 12 | 250 | 1.6 | 3.2 | 0.00 | 0.00 | 0.00 | 84 | 1015.8 |
| 20260505152535 | 12 | 255 | 0.0 | 3.2 | 0.00 | 0.00 | 0.00 | 83 | 1015.8 |
| 20260505152035 | 12 | 0 | 1.6 | 4.8 | 0.00 | 0.00 | 0.00 | 83 | 1015.7 |
| 20260505151538 | 12 | 181 | 1.6 | 4.8 | 0.00 | 0.00 | 0.00 | 82 | 1015.8 |
| 20260505151035 | 12 | 273 | 0.0 | 4.8 | 0.00 | 0.00 | 0.00 | 83 | 1015.8 |
| 20260505150536 | 12 | 304 | 1.6 | 4.8 | 0.00 | 0.00 | 0.00 | 82 | 1015.7 |
| 20260505140535 | 12 | 207 | 1.6 | 4.8 | 0.00 | 0.00 | 0.00 | 83 | 1015.1 |
| 20260505125035 | 12 | 200 | 0.0 | 3.2 | 0.00 | 0.00 | 0.00 | 81 | 1014.7 |
| 20260505124551 | 12 | 146 | 1.6 | 3.2 | 0.00 | 0.00 | 0.00 | 81 | 1014.7 |
| 20260505124034 | 12 | 190 | 1.6 | 4.8 | 0.00 | 0.00 | 0.00 | 81 | 1014.7 |
| 20260505123535 | 12 | 175 | 1.6 | 4.8 | 0.00 | 0.00 | 0.00 | 81 | 1014.7 |
| 20260505123057 | 12 | 0 | 1.6 | 4.8 | 0.00 | 0.00 | 0.00 | 80 | 1014.7 |
| 20260505122536 | 12 | 178 | 0.0 | 4.8 | 0.00 | 0.00 | 0.00 | 80 | 1014.6 |
| 20260505122036 | 12 | 0 | 0.0 | 3.2 | 0.00 | 0.00 | 0.00 | 80 | 1014.7 |
| 20260505121618 | 12 | 229 | 0.0 | 3.2 | 0.00 | 0.00 | 0.00 | 80 | 1014.7 |
| 20260505121036 | 12 | 139 | 1.6 | 3.2 | 0.00 | 0.00 | 0.00 | 80 | 1014.6 |
| 20260505120535 | 12 | 177 | 0.0 | 4.8 | 0.00 | 0.00 | 0.00 | 80 | 1014.6 |
| 20260505120047 | 12 | 215 | 1.6 | 4.8 | 0.00 | 0.00 | 0.00 | 80 | 1014.6 |
| 20260505115535 | 12 | 153 | 0.0 | 3.2 | 0.00 | 0.00 | 0.00 | 80 | 1014.6 |
| 20260505115039 | 12 | 155 | 0.0 | 3.2 | 0.00 | 0.00 | 0.00 | 80 | 1014.6 |
| 20260505114544 | 12 | 128 | 0.0 | 3.2 | 0.00 | 0.00 | 0.00 | 80 | 1014.6 |
| 20260505114036 | 12 | 0 | 0.0 | 4.8 | 0.00 | 0.00 | 0.00 | 80 | 1014.5 |
| 20260505113535 | 12 | 108 | 1.6 | 4.8 | 0.00 | 0.00 | 0.00 | 80 | 1014.6 |
| 20260505113046 | 12 | 159 | 0.0 | 6.4 | 0.00 | 0.00 | 0.00 | 80 | 1014.6 |
| 20260505112537 | 12 | 186 | 1.6 | 6.4 | 0.00 | 0.00 | 0.00 | 80 | 1014.6 |
| 20260505112036 | 12 | 146 | 0.0 | 3.2 | 0.00 | 0.00 | 0.00 | 80 | 1014.5 |
| 20260505111550 | 12 | 149 | 1.6 | 3.2 | 0.00 | 0.00 | 0.00 | 80 | 1014.6 |
| 20260505111038 | 12 | 196 | 0.0 | 3.2 | 0.00 | 0.00 | 0.00 | 79 | 1014.5 |
| 20260505110539 | 12 | 0 | 0.0 | 3.2 | 0.00 | 0.00 | 0.00 | 79 | 1014.5 |
| 20260505102036 | 13 | 112 | 1.6 | 3.2 | 0.00 | 0.00 | 0.00 | 79 | 1014.1 |
| 20260505101547 | 13 | 0 | 0.0 | 3.2 | 0.00 | 0.00 | 0.00 | 79 | 1014.1 |
| 20260505101036 | 13 | 111 | 0.0 | 3.2 | 0.00 | 0.00 | 0.00 | 80 | 1014.1 |
| 20260505100536 | 13 | 119 | 0.0 | 3.2 | 0.00 | 0.00 | 0.00 | 81 | 1014.1 |
| 20260505100123 | 13 | 120 | 0.0 | 3.2 | 0.00 | 0.00 | 0.00 | 81 | 1014.1 |
| 20260505095539 | 13 | 0 | 0.0 | 3.2 | 0.00 | 0.00 | 0.00 | 81 | 1014.1 |
| 20260505095039 | 13 | 0 | 0.0 | 3.2 | 0.00 | 0.00 | 0.00 | 81 | 1014.2 |
| 20260505094545 | 13 | 113 | 0.0 | 4.8 | 0.00 | 0.00 | 0.00 | 80 | 1014.1 |
| 20260505094036 | 13 | 0 | 0.0 | 4.8 | 0.00 | 0.00 | 0.00 | 80 | 1014.1 |
| 20260505093535 | 13 | 98 | 0.0 | 3.2 | 0.00 | 0.00 | 0.00 | 80 | 1014.1 |
| 20260505093044 | 13 | 0 | 0.0 | 3.2 | 0.00 | 0.00 | 0.00 | 80 | 1013.9 |
| 20260505092536 | 13 | 0 | 0.0 | 3.2 | 0.00 | 0.00 | 0.00 | 80 | 1013.9 |
| 20260505092035 | 13 | 0 | 0.0 | 4.8 | 0.00 | 0.00 | 0.00 | 80 | 1013.8 |
| 20260505091611 | 13 | 0 | 1.6 | 4.8 | 0.00 | 0.00 | 0.00 | 80 | 1013.8 |
| 20260505091034 | 13 | 5 | 1.6 | 3.2 | 0.00 | 0.00 | 0.00 | 80 | 1013.8 |
| 20260505090534 | 13 | 9 | 1.6 | 3.2 | 0.00 | 0.00 | 0.00 | 80 | 1013.7 |
| 20260505090058 | 13 | 9 | 0.0 | 3.2 | 0.00 | 0.00 | 0.00 | 80 | 1013.6 |
| 20260505085536 | 13 | 96 | 0.0 | 3.2 | 0.00 | 0.00 | 0.00 | 80 | 1013.6 |
| 20260505085036 | 13 | 0 | 0.0 | 3.2 | 0.00 | 0.00 | 0.00 | 80 | 1013.6 |
| 20260505084548 | 13 | 107 | 0.0 | 3.2 | 0.00 | 0.00 | 0.00 | 81 | 1013.6 |
| 20260505084039 | 13 | 0 | 0.0 | 3.2 | 0.00 | 0.00 | 0.00 | 80 | 1013.8 |
| 20260505083535 | 13 | 0 | 0.0 | 4.8 | 0.00 | 0.00 | 0.00 | 80 | 1013.7 |
| 20260505083051 | 13 | 331 | 0.0 | 4.8 | 0.00 | 0.00 | 0.00 | 80 | 1013.7 |
| 20260505082535 | 13 | 44 | 1.6 | 4.8 | 0.00 | 0.00 | 0.00 | 80 | 1013.6 |
| 20260505082035 | 13 | 0 | 1.6 | 4.8 | 0.00 | 0.00 | 0.00 | 81 | 1013.6 |
| 20260505081546 | 13 | 37 | 0.0 | 3.2 | 0.00 | 0.00 | 0.00 | 80 | 1013.6 |
| 20260505081037 | 13 | 352 | 0.0 | 4.8 | 0.00 | 0.00 | 0.00 | 80 | 1013.5 |
| 20260505080536 | 13 | 319 | 1.6 | 4.8 | 0.00 | 0.00 | 0.00 | 80 | 1013.6 |
| 20260505080048 | 13 | 336 | 0.0 | 3.2 | 0.00 | 0.00 | 0.00 | 80 | 1013.4 |
| 20260505075537 | 13 | 0 | 1.6 | 4.8 | 0.00 | 0.00 | 0.00 | 80 | 1013.4 |
| 20260505075036 | 13 | 9 | 0.0 | 8.0 | 0.00 | 0.00 | 0.00 | 80 | 1013.3 |
| 20260505074542 | 13 | 292 | 1.6 | 8.0 | 0.00 | 0.00 | 0.00 | 79 | 1013.4 |
| 20260505074039 | 13 | 344 | 1.6 | 6.4 | 0.00 | 0.00 | 0.00 | 79 | 1013.3 |
| 20260505073536 | 13 | 329 | 1.6 | 3.2 | 0.00 | 0.00 | 0.00 | 79 | 1013.2 |
| 20260505073057 | 13 | 40 | 1.6 | 3.2 | 0.00 | 0.00 | 0.00 | 79 | 1013.1 |
| 20260505072535 | 13 | 0 | 0.0 | 4.8 | 0.00 | 0.00 | 0.00 | 80 | 1013.1 |
| 20260505072035 | 14 | 0 | 0.0 | 4.8 | 0.00 | 0.00 | 0.00 | 79 | 1012.9 |
| 20260505071547 | 14 | 352 | 1.6 | 4.8 | 0.00 | 0.00 | 0.00 | 79 | 1012.9 |
| 20260505071035 | 14 | 0 | 0.0 | 4.8 | 0.00 | 0.00 | 0.00 | 78 | 1012.9 |
| 20260505070535 | 14 | 339 | 1.6 | 4.8 | 0.00 | 0.00 | 0.00 | 79 | 1012.9 |
| 20260505070041 | 14 | 0 | 0.0 | 3.2 | 0.00 | 0.00 | 0.00 | 79 | 1012.9 |
| 20260505065536 | 14 | 0 | 0.0 | 3.2 | 0.00 | 0.00 | 0.00 | 78 | 1012.8 |
| 20260505065034 | 14 | 324 | 0.0 | 3.2 | 0.00 | 0.00 | 0.00 | 78 | 1012.8 |
| 20260505064540 | 14 | 0 | 0.0 | 3.2 | 0.00 | 0.00 | 0.00 | 78 | 1012.7 |
| 20260505064037 | 14 | 313 | 0.0 | 3.2 | 0.00 | 0.00 | 0.00 | 77 | 1012.6 |
| 20260505063535 | 15 | 360 | 0.0 | 3.2 | 0.00 | 0.00 | 0.00 | 77 | 1012.5 |
| 20260505063050 | 15 | 0 | 0.0 | 3.2 | 0.00 | 0.00 | 0.00 | 77 | 1012.4 |
| 20260505062535 | 15 | 0 | 0.0 | 3.2 | 0.00 | 0.00 | 0.00 | 77 | 1012.3 |
| 20260505062036 | 15 | 313 | 0.0 | 3.2 | 0.00 | 0.00 | 0.00 | 76 | 1012.2 |
| 20260505061548 | 15 | 19 | 0.0 | 3.2 | 0.00 | 0.00 | 0.00 | 76 | 1012.2 |
| 20260505061036 | 15 | 0 | 0.0 | 3.2 | 0.00 | 0.00 | 0.00 | 75 | 1012.0 |
| 20260505060539 | 15 | 0 | 0.0 | 3.2 | 0.00 | 0.00 | 0.00 | 75 | 1012.0 |
| 20260505060050 | 15 | 0 | 0.0 | 4.8 | 0.00 | 0.00 | 0.00 | 74 | 1012.0 |
| 20260505055535 | 15 | 341 | 0.0 | 4.8 | 0.00 | 0.00 | 0.00 | 74 | 1012.0 |
| 20260505055035 | 15 | 288 | 0.0 | 3.2 | 0.00 | 0.00 | 0.00 | 74 | 1012.0 |
| 20260505054616 | 16 | 260 | 0.0 | 3.2 | 0.00 | 0.00 | 0.00 | 73 | 1012.0 |
| 20260505054037 | 16 | 304 | 1.6 | 3.2 | 0.00 | 0.00 | 0.00 | 73 | 1011.9 |
| 20260505053535 | 16 | 0 | 0.0 | 3.2 | 0.00 | 0.00 | 0.00 | 72 | 1011.8 |
| 20260505053052 | 16 | 274 | 0.0 | 4.8 | 0.00 | 0.00 | 0.00 | 72 | 1011.7 |
| 20260505052538 | 16 | 347 | 1.6 | 4.8 | 0.00 | 0.00 | 0.00 | 71 | 1011.7 |
| 20260505052037 | 16 | 334 | 1.6 | 6.4 | 0.00 | 0.00 | 0.00 | 71 | 1011.7 |
| 20260505051549 | 17 | 360 | 1.6 | 6.4 | 0.00 | 0.00 | 0.00 | 70 | 1011.6 |
| 20260505051036 | 17 | 38 | 0.0 | 4.8 | 0.00 | 0.00 | 0.00 | 69 | 1011.6 |
| 20260505050537 | 17 | 9 | 1.6 | 4.8 | 0.00 | 0.00 | 0.00 | 69 | 1011.5 |
| 20260505041549 | 19 | 346 | 1.6 | 6.4 | 0.00 | 0.00 | 0.00 | 64 | 1011.0 |
| 20260505041035 | 19 | 302 | 1.6 | 8.0 | 0.00 | 0.00 | 0.00 | 64 | 1010.9 |
| 20260505040535 | 19 | 335 | 1.6 | 9.7 | 0.00 | 0.00 | 0.00 | 63 | 1010.8 |
| 20260505040049 | 20 | 235 | 3.2 | 9.7 | 0.00 | 0.00 | 0.00 | 63 | 1010.8 |
| 20260505035535 | 20 | 346 | 3.2 | 6.4 | 0.00 | 0.00 | 0.00 | 64 | 1010.7 |
| 20260505035037 | 20 | 272 | 1.6 | 4.8 | 0.00 | 0.00 | 0.00 | 67 | 1010.4 |
| 20260505034549 | 20 | 252 | 1.6 | 3.2 | 0.00 | 0.00 | 0.00 | 66 | 1010.3 |
| 20260505034035 | 20 | 269 | 0.0 | 3.2 | 0.00 | 0.00 | 0.00 | 66 | 1010.3 |
| 20260505033535 | 20 | 11 | 1.6 | 9.7 | 0.00 | 0.00 | 0.00 | 66 | 1010.2 |
| 20260505033047 | 20 | 213 | 3.2 | 9.7 | 0.00 | 0.00 | 0.00 | 66 | 1010.1 |
| 20260505032535 | 20 | 180 | 3.2 | 8.0 | 0.00 | 0.00 | 0.00 | 66 | 1010.0 |
| 20260505032036 | 21 | 0 | 0.0 | 8.0 | 0.00 | 0.00 | 0.00 | 65 | 1009.9 |
| 20260505031545 | 21 | 191 | 3.2 | 8.0 | 0.00 | 0.00 | 0.00 | 65 | 1009.9 |
| 20260505031035 | 21 | 154 | 1.6 | 9.7 | 0.00 | 0.00 | 0.00 | 64 | 1009.8 |
| 20260505030536 | 21 | 171 | 3.2 | 9.7 | 0.00 | 0.00 | 0.00 | 64 | 1009.8 |
| 20260505030056 | 21 | 0 | 3.2 | 8.0 | 0.00 | 0.00 | 0.00 | 63 | 1009.8 |
| 20260505025538 | 21 | 163 | 3.2 | 9.7 | 0.00 | 0.00 | 0.00 | 63 | 1009.7 |
| 20260505025036 | 21 | 0 | 3.2 | 9.7 | 0.00 | 0.00 | 0.00 | 63 | 1009.7 |
| 20260505024542 | 22 | 148 | 0.0 | 8.0 | 0.00 | 0.00 | 0.00 | 63 | 1009.7 |
| 20260505024035 | 22 | 196 | 0.0 | 9.7 | 0.00 | 0.00 | 0.00 | 62 | 1009.5 |
| 20260505023535 | 22 | 211 | 3.2 | 9.7 | 0.00 | 0.00 | 0.00 | 62 | 1009.5 |
| 20260505023041 | 22 | 167 | 1.6 | 6.4 | 0.00 | 0.00 | 0.00 | 61 | 1009.5 |
| 20260505022535 | 22 | 240 | 1.6 | 8.0 | 0.00 | 0.00 | 0.00 | 62 | 1009.6 |
| 20260505022035 | 22 | 195 | 1.6 | 8.0 | 0.00 | 0.00 | 0.00 | 61 | 1009.5 |
| 20260505021553 | 22 | 121 | 1.6 | 8.0 | 0.00 | 0.00 | 0.00 | 60 | 1009.6 |
| 20260505021034 | 22 | 150 | 1.6 | 11.3 | 0.00 | 0.00 | 0.00 | 60 | 1009.6 |
| 20260505020535 | 22 | 139 | 4.8 | 11.3 | 0.00 | 0.00 | 0.00 | 59 | 1009.6 |
| 20260505020053 | 22 | 140 | 1.6 | 11.3 | 0.00 | 0.00 | 0.00 | 58 | 1009.5 |
| 20260505015535 | 23 | 184 | 3.2 | 11.3 | 0.00 | 0.00 | 0.00 | 58 | 1009.5 |
| 20260505015036 | 23 | 124 | 6.4 | 11.3 | 0.00 | 0.00 | 0.00 | 58 | 1009.6 |
| 20260505014545 | 23 | 225 | 3.2 | 14.5 | 0.00 | 0.00 | 0.00 | 57 | 1009.5 |
| 20260505014035 | 23 | 98 | 1.6 | 14.5 | 0.00 | 0.00 | 0.00 | 57 | 1009.5 |
| 20260505013538 | 23 | 135 | 6.4 | 14.5 | 0.00 | 0.00 | 0.00 | 56 | 1009.6 |
| 20260505013043 | 23 | 145 | 3.2 | 8.0 | 0.00 | 0.00 | 0.00 | 56 | 1009.6 |
| 20260505012535 | 24 | 168 | 1.6 | 12.9 | 0.00 | 0.00 | 0.00 | 56 | 1009.5 |
| 20260505012035 | 23 | 298 | 3.2 | 12.9 | 0.00 | 0.00 | 0.00 | 57 | 1009.6 |
| 20260505011540 | 23 | 166 | 1.6 | 9.7 | 0.00 | 0.00 | 0.00 | 56 | 1009.7 |
| 20260505011034 | 23 | 198 | 4.8 | 9.7 | 0.00 | 0.00 | 0.00 | 54 | 1009.8 |
| 20260505010537 | 23 | 171 | 3.2 | 16.1 | 0.00 | 0.00 | 0.00 | 56 | 1009.7 |
| 20260505010106 | 23 | 149 | 4.8 | 16.1 | 0.00 | 0.00 | 0.00 | 55 | 1009.7 |
| 20260505005535 | 24 | 122 | 4.8 | 14.5 | 0.00 | 0.00 | 0.00 | 54 | 1009.7 |
| 20260505005040 | 24 | 178 | 4.8 | 12.9 | 0.00 | 0.00 | 0.00 | 53 | 1009.8 |
| 20260505004547 | 24 | 171 | 3.2 | 12.9 | 0.00 | 0.00 | 0.00 | 54 | 1009.8 |
| 20260505004036 | 24 | 218 | 3.2 | 9.7 | 0.00 | 0.00 | 0.00 | 55 | 1009.8 |
| 20260505003535 | 23 | 111 | 3.2 | 9.7 | 0.00 | 0.00 | 0.00 | 54 | 1009.8 |
| 20260505003050 | 24 | 187 | 3.2 | 14.5 | 0.00 | 0.00 | 0.00 | 54 | 1009.8 |
| 20260505002537 | 24 | 247 | 4.8 | 14.5 | 0.00 | 0.00 | 0.00 | 53 | 1009.9 |
| 20260505002035 | 24 | 250 | 3.2 | 11.3 | 0.00 | 0.00 | 0.00 | 55 | 1009.8 |
| 20260505001546 | 25 | 284 | 4.8 | 14.5 | 0.00 | 0.00 | 0.00 | 52 | 1009.8 |
| 20260505001035 | 24 | 169 | 1.6 | 16.1 | 0.00 | 0.00 | 0.00 | 53 | 1009.8 |
| 20260505000535 | 24 | 167 | 3.2 | 16.1 | 0.00 | 0.00 | 0.00 | 53 | 1010.0 |
| 20260505000052 | 25 | 210 | 3.2 | 12.9 | 0.00 | 0.00 | 0.00 | 52 | 1010.0 |
| 20260504235538 | 25 | 160 | 3.2 | 12.9 | 0.00 | 0.00 | 0.00 | 52 | 1010.0 |
| 20260504235035 | 24 | 135 | 3.2 | 9.7 | 0.00 | 0.00 | 0.00 | 53 | 1010.0 |
| 20260504234540 | 24 | 157 | 3.2 | 12.9 | 0.00 | 0.00 | 0.00 | 52 | 1010.0 |
| 20260504234034 | 24 | 271 | 6.4 | 12.9 | 0.00 | 0.00 | 0.00 | 54 | 1010.0 |
| 20260504233538 | 24 | 126 | 1.6 | 11.3 | 0.00 | 0.00 | 0.00 | 51 | 1010.0 |
| 20260504233052 | 23 | 168 | 1.6 | 11.3 | 0.00 | 0.00 | 0.00 | 52 | 1010.0 |
| 20260504232535 | 24 | 228 | 4.8 | 11.3 | 0.00 | 0.00 | 0.00 | 53 | 1010.2 |
| 20260504232035 | 24 | 204 | 3.2 | 11.3 | 0.00 | 0.00 | 0.00 | 52 | 1010.1 |
| 20260504231547 | 23 | 212 | 1.6 | 11.3 | 0.00 | 0.00 | 0.00 | 52 | 1010.3 |
| 20260504231038 | 24 | 0 | 3.2 | 11.3 | 0.00 | 0.00 | 0.00 | 54 | 1010.3 |
| 20260504230537 | 24 | 242 | 1.6 | 12.9 | 0.00 | 0.00 | 0.00 | 52 | 1010.3 |
| 20260504230107 | 23 | 306 | 4.8 | 14.5 | 0.00 | 0.00 | 0.00 | 51 | 1010.4 |
| 20260504225540 | 23 | 104 | 6.4 | 14.5 | 0.00 | 0.00 | 0.00 | 52 | 1010.6 |
| 20260504225036 | 23 | 283 | 1.6 | 9.7 | 0.00 | 0.00 | 0.00 | 52 | 1010.7 |
| 20260504224558 | 23 | 204 | 3.2 | 9.7 | 0.00 | 0.00 | 0.00 | 51 | 1010.7 |
| 20260504224036 | 23 | 126 | 3.2 | 12.9 | 0.00 | 0.00 | 0.00 | 51 | 1010.8 |
| 20260504223536 | 23 | 243 | 1.6 | 14.5 | 0.00 | 0.00 | 0.00 | 51 | 1010.7 |
| 20260504223044 | 23 | 245 | 4.8 | 14.5 | 0.00 | 0.00 | 0.00 | 51 | 1010.9 |
| 20260504222535 | 23 | 294 | 1.6 | 9.7 | 0.00 | 0.00 | 0.00 | 52 | 1010.8 |
| 20260504222034 | 22 | 236 | 1.6 | 9.7 | 0.00 | 0.00 | 0.00 | 51 | 1011.0 |
| 20260504221540 | 23 | 270 | 1.6 | 9.7 | 0.00 | 0.00 | 0.00 | 51 | 1011.1 |
| 20260504221035 | 22 | 146 | 3.2 | 9.7 | 0.00 | 0.00 | 0.00 | 56 | 1011.2 |
| 20260504220540 | 22 | 311 | 3.2 | 11.3 | 0.00 | 0.00 | 0.00 | 53 | 1011.2 |
| 20260504220057 | 23 | 153 | 3.2 | 11.3 | 0.00 | 0.00 | 0.00 | 53 | 1011.3 |
| 20260504215538 | 22 | 292 | 3.2 | 11.3 | 0.00 | 0.00 | 0.00 | 55 | 1011.3 |
| 20260504215035 | 22 | 153 | 4.8 | 11.3 | 0.00 | 0.00 | 0.00 | 53 | 1011.4 |
| 20260504214546 | 22 | 176 | 3.2 | 9.7 | 0.00 | 0.00 | 0.00 | 53 | 1011.4 |
| 20260504214035 | 22 | 113 | 1.6 | 11.3 | 0.00 | 0.00 | 0.00 | 56 | 1011.4 |
| 20260504213538 | 22 | 124 | 3.2 | 11.3 | 0.00 | 0.00 | 0.00 | 57 | 1011.5 |
| 20260504213047 | 21 | 159 | 4.8 | 11.3 | 0.00 | 0.00 | 0.00 | 55 | 1011.6 |
| 20260504212535 | 21 | 329 | 3.2 | 12.9 | 0.00 | 0.00 | 0.00 | 57 | 1011.6 |
| 20260504212035 | 21 | 89 | 3.2 | 12.9 | 0.00 | 0.00 | 0.00 | 58 | 1011.7 |
| 20260504211554 | 20 | 115 | 4.8 | 11.3 | 0.00 | 0.00 | 0.00 | 58 | 1011.7 |
| 20260504211035 | 21 | 131 | 4.8 | 11.3 | 0.00 | 0.00 | 0.00 | 58 | 1011.9 |
| 20260504210535 | 21 | 195 | 3.2 | 11.3 | 0.00 | 0.00 | 0.00 | 56 | 1012.0 |
| 20260504210055 | 21 | 252 | 4.8 | 11.3 | 0.00 | 0.00 | 0.00 | 58 | 1012.0 |
| 20260504205534 | 20 | 242 | 4.8 | 16.1 | 0.00 | 0.00 | 0.00 | 60 | 1012.1 |
| 20260504205034 | 21 | 157 | 3.2 | 16.1 | 0.00 | 0.00 | 0.00 | 57 | 1012.4 |
| 20260504204550 | 20 | 109 | 6.4 | 14.5 | 0.00 | 0.00 | 0.00 | 58 | 1012.3 |
| 20260504204034 | 20 | 254 | 4.8 | 14.5 | 0.00 | 0.00 | 0.00 | 60 | 1012.4 |
| 20260504203534 | 20 | 107 | 3.2 | 9.7 | 0.00 | 0.00 | 0.00 | 59 | 1012.4 |
| 20260504203049 | 20 | 230 | 3.2 | 11.3 | 0.00 | 0.00 | 0.00 | 60 | 1012.5 |
| 20260504202534 | 20 | 186 | 3.2 | 14.5 | 0.00 | 0.00 | 0.00 | 60 | 1012.6 |
| 20260504202034 | 19 | 319 | 6.4 | 14.5 | 0.00 | 0.00 | 0.00 | 61 | 1012.5 |
| 20260504201549 | 19 | 165 | 3.2 | 11.3 | 0.00 | 0.00 | 0.00 | 64 | 1012.6 |
| 20260504201033 | 19 | 302 | 6.4 | 12.9 | 0.00 | 0.00 | 0.00 | 61 | 1012.6 |
| 20260504200535 | 19 | 138 | 4.8 | 12.9 | 0.00 | 0.00 | 0.00 | 61 | 1012.8 |
| 20260504200059 | 19 | 121 | 4.8 | 14.5 | 0.00 | 0.00 | 0.00 | 63 | 1012.8 |
| 20260504195534 | 18 | 141 | 4.8 | 14.5 | 0.00 | 0.00 | 0.00 | 63 | 1012.8 |
| 20260504195034 | 18 | 224 | 3.2 | 12.9 | 0.00 | 0.00 | 0.00 | 65 | 1012.9 |
| 20260504194545 | 18 | 280 | 4.8 | 12.9 | 0.00 | 0.00 | 0.00 | 64 | 1012.8 |
| 20260504194034 | 18 | 116 | 3.2 | 11.3 | 0.00 | 0.00 | 0.00 | 65 | 1012.9 |
| 20260504193534 | 18 | 138 | 4.8 | 11.3 | 0.00 | 0.00 | 0.00 | 64 | 1012.9 |
| 20260504193045 | 18 | 103 | 1.6 | 11.3 | 0.00 | 0.00 | 0.00 | 64 | 1012.9 |
| 20260504192535 | 18 | 132 | 3.2 | 11.3 | 0.00 | 0.00 | 0.00 | 64 | 1013.0 |
| 20260504192034 | 17 | 140 | 3.2 | 12.9 | 0.00 | 0.00 | 0.00 | 66 | 1013.0 |
| 20260504191605 | 18 | 150 | 3.2 | 12.9 | 0.00 | 0.00 | 0.00 | 65 | 1013.0 |
| 20260504191034 | 18 | 194 | 3.2 | 11.3 | 0.00 | 0.00 | 0.00 | 68 | 1013.1 |
| 20260504190534 | 17 | 197 | 3.2 | 11.3 | 0.00 | 0.00 | 0.00 | 65 | 1013.0 |
| 20260504190045 | 17 | 160 | 3.2 | 20.9 | 0.00 | 0.00 | 0.00 | 68 | 1013.1 |
| 20260504185533 | 17 | 286 | 3.2 | 20.9 | 0.00 | 0.00 | 0.00 | 66 | 1013.2 |
| 20260504185033 | 17 | 122 | 6.4 | 20.9 | 0.00 | 0.00 | 0.00 | 68 | 1013.3 |
| 20260504184549 | 17 | 160 | 3.2 | 11.3 | 0.00 | 0.00 | 0.00 | 68 | 1013.3 |
| 20260504184037 | 16 | 129 | 3.2 | 12.9 | 0.00 | 0.00 | 0.00 | 70 | 1013.4 |
| 20260504183535 | 16 | 237 | 3.2 | 12.9 | 0.00 | 0.00 | 0.00 | 70 | 1013.4 |
| 20260504183046 | 16 | 107 | 4.8 | 12.9 | 0.00 | 0.00 | 0.00 | 70 | 1013.3 |
| 20260504182534 | 16 | 134 | 3.2 | 8.0 | 0.00 | 0.00 | 0.00 | 70 | 1013.3 |
| 20260504182034 | 16 | 263 | 1.6 | 9.7 | 0.00 | 0.00 | 0.00 | 72 | 1013.3 |
| 20260504181546 | 15 | 253 | 1.6 | 14.5 | 0.00 | 0.00 | 0.00 | 74 | 1013.2 |
| 20260504181035 | 15 | 167 | 4.8 | 14.5 | 0.00 | 0.00 | 0.00 | 72 | 1013.3 |
| 20260504180535 | 15 | 161 | 3.2 | 11.3 | 0.00 | 0.00 | 0.00 | 73 | 1013.3 |
| 20260504180044 | 15 | 157 | 4.8 | 11.3 | 0.00 | 0.00 | 0.00 | 74 | 1013.4 |
| 20260504175534 | 15 | 199 | 1.6 | 12.9 | 0.00 | 0.00 | 0.00 | 75 | 1013.2 |
| 20260504175034 | 15 | 219 | 3.2 | 12.9 | 0.00 | 0.00 | 0.00 | 74 | 1013.2 |
| 20260504174540 | 15 | 295 | 3.2 | 12.9 | 0.00 | 0.00 | 0.00 | 75 | 1013.3 |
| 20260504174035 | 15 | 222 | 3.2 | 8.0 | 0.00 | 0.00 | 0.00 | 75 | 1013.4 |
| 20260504173534 | 15 | 113 | 1.6 | 11.3 | 0.00 | 0.00 | 0.00 | 75 | 1013.3 |
| 20260504173047 | 15 | 149 | 3.2 | 11.3 | 0.00 | 0.00 | 0.00 | 75 | 1013.2 |
| 20260504172534 | 15 | 187 | 3.2 | 11.3 | 0.00 | 0.00 | 0.00 | 74 | 1013.3 |
| 20260504172034 | 15 | 107 | 6.4 | 11.3 | 0.00 | 0.00 | 0.00 | 75 | 1013.3 |
| 20260504171538 | 15 | 213 | 3.2 | 9.7 | 0.00 | 0.00 | 0.00 | 75 | 1013.2 |
| 20260504171035 | 15 | 271 | 1.6 | 8.0 | 0.00 | 0.00 | 0.00 | 75 | 1013.2 |
| 20260504170535 | 14 | 144 | 1.6 | 12.9 | 0.00 | 0.00 | 0.00 | 77 | 1013.2 |